Date String (YYYY-MM-DD hh:mm:ss) UTC,Instrument flags,Ambient pressure (hPa),Sample flow (lpm),Bypass flow (lpm),Sample temperature (°C),Ambient temperature (°C),ASC tube jacket temperature (°C),LED temperature (°C),Box temperature (°C),Sample RH (%),Span deviation,Mass concentration (μg/m³),Mass concentration (μg/m³),Mass concentration (μg/m³)
DateTimeUTC,F1_M11,P_M11,Q1_M11,Q2_M11,T1_M11,T2_M11,T3_M11,T4_M11,T5_M11,U1_M11,ZSPAN_M11,X0_M11,X2_M11,X1_M11
2022-08-27 17:00:00,,0824.2,4.99,0.00,29.7,27.9,00.0,38.4,31.5,20.2,0000.0,0010.93,0004.95,0004.47
2022-08-27 17:01:00,,0824.3,5.01,0.00,29.7,28.1,00.0,38.4,31.6,20.5,0000.0,0010.43,0004.95,0004.46
2022-08-27 17:02:00,,0824.3,5.00,0.00,29.7,28.3,00.0,38.4,31.6,22.2,0000.0,0009.61,0004.96,0004.46
2022-08-27 17:03:00,,0824.2,5.00,0.00,29.8,28.5,00.0,38.4,31.6,22.2,0000.0,0009.18,0004.94,0004.45
2022-08-27 17:04:00,,0824.1,5.00,0.00,29.8,28.6,00.0,38.4,31.7,22.3,0000.0,0009.47,0004.95,0004.45
2022-08-27 17:05:00,,0824.1,5.00,0.00,29.8,28.7,00.0,38.5,31.7,21.8,0000.0,0009.80,0004.96,0004.45
2022-08-27 17:06:00,,0824.1,5.00,0.00,29.8,28.0,00.0,38.5,31.7,21.5,0000.0,0009.75,0004.95,0004.45
2022-08-27 17:07:00,,0824.1,4.99,0.00,29.8,26.9,00.0,38.4,31.6,21.1,0000.0,0009.87,0004.93,0004.45
2022-08-27 17:08:00,,0824.1,4.99,0.00,29.8,26.9,00.0,38.4,31.6,20.5,0000.0,0009.91,0004.91,0004.45
2022-08-27 17:09:00,,0824.1,4.99,0.00,29.7,27.2,00.0,38.4,31.5,20.6,0000.0,0010.09,0004.92,0004.47
2022-08-27 17:10:00,,0824.0,5.00,0.00,29.7,27.5,00.0,38.4,31.4,20.0,0000.0,0010.14,0004.97,0004.49
2022-08-27 17:11:00,,0824.0,4.99,0.00,29.7,27.7,00.0,38.4,31.5,15.4,0000.0,0010.86,0005.03,0004.52
2022-08-27 17:12:00,,0823.9,5.00,0.00,29.7,28.0,00.0,38.4,31.5,14.9,0000.0,0011.51,0005.11,0004.57
2022-08-27 17:13:00,,0823.9,5.01,0.00,29.7,28.2,00.0,38.4,31.5,15.2,0000.0,0011.98,0005.16,0004.61
2022-08-27 17:14:00,,0824.0,5.00,0.00,29.7,28.3,00.0,38.4,31.6,15.0,0000.0,0011.80,0005.22,0004.66
2022-08-27 17:15:00,,0824.0,5.00,0.00,29.7,28.5,00.0,38.4,31.6,14.8,0000.0,0011.52,0005.25,0004.69
2022-08-27 17:16:00,,0823.9,5.00,0.00,29.8,28.5,00.0,38.4,31.7,14.7,0000.0,0011.60,0005.30,0004.73
2022-08-27 17:17:00,,0823.8,5.00,0.00,29.8,27.5,00.0,38.4,31.6,14.8,0000.0,0012.95,0005.36,0004.76
2022-08-27 17:18:00,,0823.9,5.01,0.00,29.7,26.8,00.0,38.4,31.5,14.3,0000.0,0013.51,0005.40,0004.78
2022-08-27 17:19:00,,0823.8,4.99,0.00,29.7,27.0,00.0,38.3,31.5,14.2,0000.0,0014.64,0005.44,0004.81
2022-08-27 17:20:00,,0823.7,4.99,0.00,29.6,27.3,00.0,38.3,31.4,14.6,0000.0,0014.88,0005.52,0004.84
2022-08-27 17:21:00,,0823.8,5.01,0.00,29.6,27.5,00.0,38.3,31.4,14.5,0000.0,0015.08,0005.52,0004.85
2022-08-27 17:22:00,,0823.8,4.99,0.00,29.6,27.8,00.0,38.3,31.4,14.3,0000.0,0014.37,0005.53,0004.87
2022-08-27 17:23:00,,0823.8,5.02,0.00,29.6,28.0,00.0,38.3,31.5,14.9,0000.0,0013.55,0005.49,0004.85
2022-08-27 17:24:00,,0823.8,5.00,0.00,29.6,28.2,00.0,38.3,31.5,14.8,0000.0,0013.06,0005.43,0004.85
2022-08-27 17:25:00,,0823.7,5.00,0.00,29.7,28.4,00.0,38.3,31.5,14.8,0000.0,0013.59,0005.42,0004.84
2022-08-27 17:26:00,,0823.7,5.00,0.00,29.7,28.5,00.0,38.3,31.6,14.6,0000.0,0013.79,0005.44,0004.85
2022-08-27 17:27:00,,0823.7,5.01,0.00,29.7,28.6,00.0,38.3,31.7,14.6,0000.0,0013.55,0005.44,0004.85
2022-08-27 17:28:00,,0823.7,4.98,0.00,29.7,27.7,00.0,38.3,31.6,14.5,0000.0,0012.43,0005.43,0004.86
2022-08-27 17:29:00,,0823.7,5.02,0.00,29.7,26.8,00.0,38.3,31.4,14.5,0000.0,0011.34,0005.40,0004.89
2022-08-27 17:30:00,,0823.7,4.99,0.00,29.7,26.9,00.0,38.3,31.4,14.9,0000.0,0010.44,0005.41,0004.90
2022-08-27 17:31:00,,0823.7,4.99,0.00,29.6,27.2,00.0,38.3,31.4,15.3,0000.0,0009.65,0005.37,0004.90
2022-08-27 17:32:00,,0823.7,5.01,0.00,29.6,27.4,00.0,38.3,31.4,15.1,0000.0,0009.40,0005.37,0004.91
2022-08-27 17:33:00,,0823.7,5.01,0.00,29.6,27.7,00.0,38.3,31.4,14.8,0000.0,0009.08,0005.37,0004.92
2022-08-27 17:34:00,,0823.6,4.99,0.00,29.6,27.9,00.0,38.3,31.4,14.4,0000.0,0009.32,0005.41,0004.94
2022-08-27 17:35:00,,0823.7,4.99,0.00,29.6,28.1,00.0,38.3,31.4,14.5,0000.0,0009.42,0005.43,0004.94
2022-08-27 17:36:00,,0823.6,5.01,0.00,29.6,28.3,00.0,38.3,31.5,14.4,0000.0,0008.79,0005.41,0004.94
2022-08-27 17:37:00,,0823.6,5.00,0.00,29.7,28.5,00.0,38.3,31.5,14.1,0000.0,0008.41,0005.37,0004.92
2022-08-27 17:38:00,,0823.7,5.00,0.00,29.7,28.3,00.0,38.3,31.6,13.7,0000.0,0008.32,0005.32,0004.89
2022-08-27 17:39:00,,0823.7,5.01,0.00,29.7,27.3,00.0,38.3,31.5,13.8,0000.0,0008.18,0005.26,0004.87
2022-08-27 17:40:00,,0823.7,4.99,0.00,29.6,26.6,00.0,38.3,31.4,14.3,0000.0,0008.21,0005.24,0004.84
2022-08-27 17:41:00,,0823.6,4.99,0.00,29.6,26.9,00.0,38.2,31.3,14.5,0000.0,0008.24,0005.23,0004.82
2022-08-27 17:42:00,,0823.6,5.00,0.00,29.5,27.2,00.0,38.2,31.3,14.4,0000.0,0008.88,0005.22,0004.80
2022-08-27 17:43:00,,0823.6,5.00,0.00,29.5,27.4,00.0,38.2,31.3,14.5,0000.0,0009.50,0005.19,0004.78
2022-08-27 17:44:00,,0823.6,5.01,0.00,29.5,27.7,00.0,38.2,31.3,14.1,0000.0,0010.04,0005.18,0004.76
2022-08-27 17:45:00,,0823.6,4.99,0.00,29.5,27.9,00.0,38.2,31.3,14.0,0000.0,0009.92,0005.11,0004.73
2022-08-27 17:46:00,,0823.6,4.99,0.00,29.6,28.1,00.0,38.2,31.4,14.2,0000.0,0010.35,0005.11,0004.72
2022-08-27 17:47:00,,0823.7,5.01,0.00,29.6,28.3,00.0,38.2,31.5,14.4,0000.0,0010.52,0005.12,0004.70
2022-08-27 17:48:00,,0823.7,5.00,0.00,29.6,28.4,00.0,38.2,31.5,14.1,0000.0,0010.95,0005.14,0004.70
2022-08-27 17:49:00,,0823.7,5.00,0.00,29.6,28.4,00.0,38.3,31.6,14.0,0000.0,0011.09,0005.16,0004.70
2022-08-27 17:50:00,,0823.6,5.02,0.00,29.6,27.5,00.0,38.3,31.5,14.5,0000.0,0011.24,0005.19,0004.70
2022-08-27 17:51:00,,0823.6,5.00,0.00,29.6,26.8,00.0,38.2,31.4,14.4,0000.0,0011.59,0005.20,0004.69
2022-08-27 17:52:00,,0823.6,4.99,0.00,29.6,27.0,00.0,38.2,31.4,14.4,0000.0,0011.73,0005.16,0004.66
2022-08-27 17:53:00,,0823.6,5.00,0.00,29.5,27.2,00.0,38.2,31.3,14.3,0000.0,0011.31,0005.14,0004.66
2022-08-27 17:54:00,,0823.5,5.00,0.00,29.5,27.5,00.0,38.2,31.3,14.3,0000.0,0010.73,0005.13,0004.66
2022-08-27 17:55:00,,0823.4,5.01,0.00,29.5,27.7,00.0,38.2,31.3,14.4,0000.0,0010.13,0005.09,0004.63
2022-08-27 17:56:00,,0823.5,5.02,0.00,29.5,27.9,00.0,38.2,31.4,14.5,0000.0,0010.14,0005.08,0004.60
2022-08-27 17:57:00,,0823.5,4.99,0.00,29.5,28.1,00.0,38.2,31.4,14.3,0000.0,0009.93,0005.03,0004.56
2022-08-27 17:58:00,,0823.4,5.01,0.00,29.6,28.3,00.0,38.2,31.4,14.6,0000.0,0010.37,0004.99,0004.53
2022-08-27 17:59:00,,0823.4,5.00,0.00,29.6,28.4,00.0,38.2,31.5,14.2,0000.0,0010.32,0004.96,0004.49
